ASIASAT 4

Last updated on Sun Jun 21 2026 00:03:03 GMT+0000 (Coordinated Universal Time)

1 27718U 03014A 26171.46340469 -.00000228 00000+0 00000+0 0 9997 2 27718 4.7120 75.7059 0002905 15.9102 131.4326 1.00272462 45337
UTC large
Height (km)
Speed (km/s)
/
Latitude / Longitude
Inclination (degrees)
Orbital Period (minutes)
Azimuth
Elevation
Range (km)
Doppler Factor

Next 0 passes for location: London (51.5072 / 0.1276)

No passes found over London.
ASIASAT 4